Location: �clusier
(49.9361°N, 2.7869°E)
Time: 07:07:27
(UTC+00:00)

Cosmos 1725 Rocket - Pass Details

Date: 16 June 2021
Orbit: 962 x 990 km, 82.9° (Epoch: 01 August)

Event Time Altitude Azimuth Distance (km) Brightness Sun altitude
Rises 22:13:40 0° 347° (NNW) 3,662 8.8 -13.6°
Reaches altitude 10° 22:16:13 10° 344° (NNW) 2,710 7.8 -13.8°
Maximum altitude 22:22:16 59° 267° (W) 1,105 4.4 -14.2°
Enters shadow 22:27:20 15° 192° (SSW) 2,343 5.5 -14.4°
